STARLINK-11188, 60722

Orbit data source: Space-Track

STARLINK-11188, 60722 is a payload satellite owned by SpaceX/Seattle (US) in LEO that was launched on Wed, 28 Aug 2024 UTC via an FALCON 9 launch vehicle from the Air Force Eastern Test Range (AFETR). Payloads include a variety of satellites, spacecraft, and rockets equipped with specific instruments for various scientific and technological missions. These include communications satellites like Starlink; space stations such as the ISS; scientific satellites like the Hubble; Earth observation satellites from companies like Planet Labs, Umbra, and HawkEye 360; GPS; miniature CubeSats for education and research; and military/defense satellites.

Loading next visibility...
STARLINK-11188 details
Identifier
60722, 2024-152C
Orbit
LEO
Last TLE update19 hours ago
Origin
Flag of USSpaceX/Seattle (US)
ManufacturerSpaceX/Seattle
MissionOperational spacecraft
Bus & MotorSTARLINK V2M, Unknown motor
Mass730 kg wet, ~700 kg dry
Launch date (UTC)
2024-08-28 (4 months ago)
Launch vehicle
FALCON 9
Launch site
Air Force Eastern Test Range (AFETR)
Object type
Payload
Rocket body
Debris
Shape & HBRUnknown
Radar Cross SectionLarge (>1 m²)

Expand to show TLE details & history

TLE from 19 hours ago
0 STARLINK-11188
1 60722U 24152C   24355.79566452 -.00002201  00000-0 -13332-4 0  9997
2 60722  53.1589 144.7027 0001353 111.7694 248.3468 15.69678650 19239
Epoch: 2024-12-20T19:05Z
Definitive object data (Epoch: 2024-12-20T19:05:45.414Z)
Latitude-0.00002°
Longitude128.40742°
Altitude361.068 km
Speed7.694 km/s
True Right ascension09h 38m 48s
True Declination0° 00' 00"
Sunlit
Object was in full shadow at TLE epoch
Visualization TLE readout
Latitude11.58476°
Longitude-64.28891°
Altitude359.399 km
Speed7.696 km/s
Apparent Right ascension22h 37m 19s
Apparent Declination-15° 40' 38"
Sunlit
Object is in daylight
Visualization observer readout
Local Sidereal Time13:10:10
Azimuth64.964° ENE
Elevation-48.905°
Doppler factor1
Orbital elements
Apogee altitude360.989 km
Perigee altitude359.166 km
Semi-major axis6,738.214 km
Eccentricity0.0001353
Inclination53.1589°
RAAN144.7027°
Arg. of periapsis111.7694°
True anomaly248.33239°
Mean anomaly248.3468°
Eccentric anomaly248.3396°
Mean motion3.92397 °/min
BSTAR-0.000013332
Orbital period91.74 mins
Loading maneuver chart data...
Loading historical data...
Loading historical data...
Loading historical data...
Loading historical data...
Loading historical data...
Loading historical data...
Loading historical data...

STARLINK-11188 Visibility forecast

Observer location: undefined°, undefined

Span
Click to sort rows by Start time (UTC) header in descending order
Start Az.
Max El. time (UTC)
Max El. Az.
Max El.
End time (UTC)
End Az.
4 mins2024-12-21 20:04:05.380Z289.482° WNW2024-12-21 20:06:05.380Z211.747° SW33.831°2024-12-21 20:08:05.380Z155.801° SSE
4 mins2024-12-22 12:33:05.380Z230.534° WSW2024-12-22 12:35:05.380Z41.906° NE43.666°2024-12-22 12:37:05.380Z49.212° ENE
|